Home   Weather   Spokane   Past weeks

Flag for USA Past Weather in Spokane, Washington, USA — Yesterday and Last 2 Weeks

47 °F


Feels Like: 46 °F
Forecast: 41 / 54 °F
Wind: 3 mph from South

Location: Felts Field

Current Time: Oct 28, 2016 at 7:08:18 AM

Latest Report: Oct 28, 2016 at 5:53 AM

Visibility: 10 mi

Pressure: 30.02 "Hg (28.01 "Hg at 569m altitude)

Humidity: 93%

Dew Point: 45 °F

Location of SpokaneLocation

Past Weather in Spokane — Graph


Spokane Temperature Yesterday

Maximum temperature yesterday: 52 °F (at 1:00 PM)
Minimum temperature yesterday: 48 °F (at 4:00 AM)
Average temperature yesterday: 50 °F

High & Low Weather Summary for the Past Weeks

High67 °F (Oct 24, 2:53 PM)100% (Oct 13, 3:53 PM)30.43 "Hg (Oct 13, 3:53 PM)
Low38 °F (Oct 23, 7:53 AM)42% (Oct 14, 3:53 PM)29.36 "Hg (Oct 15, 9:53 PM)
Average50 °F83%29.88 "Hg
* Reported Oct 13 5:53 AM — Oct 28 5:53 AM, Spokane, Weather by CustomWeather, © 2016

Note: Actual official high and low records may vary slightly from our data, if they occured in-between our weather recording intervals... More about our weather records


Spokane Weather History for the Previous 24 Hours

Scroll right to see more
Time TempWeatherWind HumidityBarometerVisibility
5:53 AM
Fri, Oct 28
47 °FOvercast.3 mph93%30.02 "Hg10 mi
4:53 AM48 °FOvercast.5 mph89%30.00 "Hg10 mi
3:53 AM48 °FOvercast.3 mph93%29.99 "Hg10 mi
2:53 AM48 °FMostly cloudy.3 mph93%29.98 "Hg10 mi
1:53 AM48 °FFog.5 mph96%29.95 "Hg5 mi
12:53 AM49 °FMostly cloudy.3 mph93%29.93 "Hg10 mi
11:53 PM
Thu, Oct 27
49 °FOvercast.No wind97%29.92 "Hg9 mi
10:53 PM49 °FMostly cloudy.3 mph93%29.90 "Hg10 mi
9:53 PM49 °FMostly cloudy.6 mph97%29.89 "Hg8 mi
8:57 PM49 °FLight rain. Fog.6 mph100%29.87 "Hg2 mi
8:01 PM49 °FLight rain. Fog.6 mph100%29.85 "Hg2 mi
7:00 PM50 °FLight rain. Mostly cloudy.7 mph96%29.84 "Hg8 mi
5:53 PM52 °FMostly cloudy.No wind97%29.83 "Hg7 mi
4:53 PM52 °FLight rain. Mostly cloudy.No wind97%29.82 "Hg8 mi
3:53 PM52 °FLight rain. Fog.No wind100%29.84 "Hg3 mi
2:53 PM52 °FLight rain. Fog.No wind97%29.85 "Hg5 mi
1:53 PM52 °FLight rain. Fog.No wind100%29.85 "Hg3 mi
1:00 PM52 °FLight rain. Fog.3 mph97%29.87 "Hg4 mi
12:00 PM51 °FLight rain. Fog.No wind100%29.89 "Hg2 mi
10:53 AM51 °FLight rain. Fog.5 mph96%29.88 "Hg4 mi
9:53 AM50 °FFog.3 mph96%29.88 "Hg4 mi
8:53 AM50 °FLight rain. Fog.No wind100%29.90 "Hg3 mi
7:53 AM49 °FFog.3 mph97%29.89 "Hg2 mi
Weather by CustomWeather, © 2016

See weather overviewHow to use our weather pages